Regional Weather Roundup
Issued by NWS

Home | Current Version | Previous Version | Graphics & Text | Print | Product List | Glossary On
Versions: 1 2 3 4 5 6 7 8 9 10 11 12 13 14 15 16 17 18 19 20 21 22 23 24 25 26 27 28 29 30 31 32 33 34 35 36 37 38 39 40 41 42 43 44 45 46 47 48 49 50
000
ASUS43 KOAX 040110
RWRNE

WEATHER ROUNDUP FOR NEBRASKA
NATIONAL WEATHER SERVICE OMAHA NE
800 PM CDT SUN MAY 03 2015

NOTES: SATELLITE DATA IS BEING USED TO AUGMENT CLOUD COVER ABOVE
       12000 FEET.
       "FAIR" INDICATES FEW OR NO CLOUDS BELOW 12,000 FEET WITH NO
       SIGNIFICANT WEATHER AND/OR OBSTRUCTIONS TO VISIBILITY.

  * THESE STATIONS DO NOT REPORT WEATHER SUCH AS RAIN...SNOW OR FOG.

NEZ001>004-019>022-054>056-040200-
NEBRASKA PANHANDLE

CITY           SKY/WX    TMP DP  RH WIND       PRES   REMARKS
SCOTTSBLUFF    CLOUDY    66  38  35 E10G20    29.99R
ALLIANCE       CLOUDY    64  40  41 NE12      29.99R
CHADRON        CLOUDY    66  40  38 E14       29.98R
KIMBALL        CLOUDY    56  47  72 SE13      29.98F
SIDNEY         CLOUDY    65  42  43 N9        30.00R
$$

NEZ057>060-069>072-079>082-040200-
SOUTHWEST NEBRASKA

CITY           SKY/WX    TMP DP  RH WIND       PRES   REMARKS
NORTH PLATTE   PTCLDY    70  45  40 N17       29.90R
IMPERIAL       MOCLDY    72  41  32 NE12      29.89R
LEXINGTON      CLEAR     75  49  39 N12       29.83R
MCCOOK         PTCLDY    79  44  28 N17       29.82R
OGALLALA       CLOUDY    68  40  35 NE15G21   29.94R
$$

NEZ005>010-023>029-035>040-094-040200-
NORTH CENTRAL NEBRASKA

CITY           SKY/WX    TMP DP  RH WIND       PRES   REMARKS
VALENTINE      CLEAR     68  35  29 NE16      29.97R
AINSWORTH      CLOUDY    68  36  30 N17       29.96R
BROKEN BOW     CLEAR     71  45  39 N21G28    29.87R
O`NEILL        PTCLDY    69  40  34 N21G29    29.89R
ORD            CLEAR     72  47  40 N20G31    29.83R
THEDFORD       CLEAR     67  40  37 NE14G20   29.96R
$$

NEZ041-046>049-061>064-073>077-083>087-040200-
SOUTH CENTRAL NEBRASKA

CITY           SKY/WX    TMP DP  RH WIND       PRES   REMARKS
GRAND ISLAND   CLEAR     79  56  45 N18       29.76R
AURORA         PTCLDY    82  47  29 N9        29.73R
HASTINGS       PTCLDY    81  55  40 N21       29.75R
HEBRON         PTCLDY    82  53  36 S16       29.72S
HOLDREGE       PTCLDY    77  48  36 N18G24    29.80R
KEARNEY *      CLEAR     77  52  41 N20       29.79R
YORK           PTCLDY    75  55  50 E8        29.72R
$$

NEZ011>018-030>034-042>045-040200-
NORTHEAST NEBRASKA

CITY           SKY/WX    TMP DP  RH WIND       PRES   REMARKS
NORFOLK        PTCLDY    76  47  35 NE18G28   29.81R
ALBION         CLEAR     73  47  39 N21G30    29.81R
BLAIR          CLOUDY    75  55  49 E5        29.74R THUNDER
COLUMBUS *     PTCLDY    77  54  44 S12G17    29.74S
FREMONT        CLOUDY    76  58  53 CALM      29.76R
TEKAMAH        CLOUDY    77  59  53 S7        29.74R
WAYNE          MOCLDY    76  44  32 N24G32    29.80R
$$

NEZ050>053-065>068-078-088>093-040200-
SOUTHEAST NEBRASKA

CITY           SKY/WX    TMP DP  RH WIND       PRES   REMARKS
LINCOLN        CLOUDY    72  62  71 SE21      29.76R THUNDER
OMAHA EPPLEY   LGT RAIN  75  61  61 SE21      29.72F
BEATRICE       MOCLDY    82  57  42 S17       29.72R
FALLS CITY     CLOUDY    77  57  50 SE8       29.76S
NEBRASKA CITY  CLOUDY    76  50  40 SE10      29.78R THUNDER
PLATTSMOUTH    RAIN      73  55  54 SE22      29.76F
$$

NEZ044-045-051>053-067-040200-
OMAHA AREA

CITY           SKY/WX    TMP DP  RH WIND       PRES   REMARKS
OMAHA EPPLEY   LGT RAIN  75  61  61 SE21      29.72F
BLAIR          CLOUDY    75  55  49 E5        29.74R THUNDER
FREMONT        CLOUDY    76  58  53 CALM      29.76R
MILLARD        CLOUDY    78  59  52 S7        29.74F THUNDER
OFFUTT AFB     MOCLDY    75  54  46 S8        29.71F
PLATTSMOUTH    RAIN      73  55  54 SE22      29.76F
WAHOO          FAIR      75  55  50 SE10      29.72F
$$



USA.gov is the U.S. government's official web portal to all federal, state and local government web resources and services.